Location: Berkeley
(37.8716°N, 122.2727°W)
Time: 11:15:49
(UTC-07:00)

Tiangong - Pass Details

Date: 17 May 2026
Orbit: 380 x 392 km, 41.5° (Epoch: 10 June)

Event Time Altitude Azimuth Distance (km) Brightness Sun altitude
Exits shadow 04:09:59 19° 145° (SE) 989 -0.2 -18.2°
Drops below altitude 10° 04:11:05 10° 135° (SE) 1,402 0.7 -18.0°
Sets 04:13:12 0° 128° (SE) 2,249 1.9 -17.7°
